Location: Caltech
(34.1382°N, 118.1253°W)
Time: 12:12:54
(UTC-07:00)

Gurwin Techsat 1B - Visible Passes

Search period start: 03 September 2015 00:00
Search period end: 13 September 2015 00:00
Orbit: 811 x 815 km, 98.5° (Epoch: 02 September)

Date Brightness Start Highest point End Pass type
(mag) Time Alt. Az. Time Alt. Az. Time Alt. Az.
03 Sep 10.5 03:00:38 10° NNE 03:03:03 27° NNE 03:03:03 27° NNE visible
03 Sep 10.5 04:42:21 10° NNW 04:44:15 14° NW 04:44:15 14° NW visible
04 Sep 11.0 02:38:14 10° NNE 02:39:55 19° NE 02:39:55 19° NE visible
04 Sep 10.2 04:18:34 10° NNW 04:21:08 21° NW 04:21:08 21° NW visible
05 Sep 11.4 02:16:16 10° NE 02:16:48 12° NE 02:16:48 12° NE visible
05 Sep 10.0 03:55:18 10° N 03:58:01 27° NNW 03:58:01 27° NNW visible
06 Sep 10.1 03:32:19 10° N 03:34:53 29° N 03:34:53 29° N visible
07 Sep 10.5 03:09:33 10° NNE 03:11:46 26° NNE 03:11:46 26° NNE visible
07 Sep 10.7 04:52:08 10° NW 04:52:59 11° NW 04:52:59 11° NW visible
08 Sep 11.0 02:47:03 10° NNE 02:48:39 19° NE 02:48:39 19° NE visible
08 Sep 10.4 04:27:54 10° NNW 04:29:51 17° NW 04:29:51 17° NW visible
09 Sep 11.4 02:24:53 10° NE 02:25:32 13° NE 02:25:32 13° NE visible
09 Sep 10.3 04:04:28 10° N 04:06:44 22° NNW 04:06:44 22° NNW visible
10 Sep 10.3 03:41:22 10° N 03:43:37 25° N 03:43:37 25° N visible
11 Sep 10.6 03:18:32 10° NNE 03:20:29 23° NNE 03:20:29 23° NNE visible
12 Sep 11.0 02:55:55 10° NNE 02:57:21 19° NNE 02:57:21 19° NNE visible
12 Sep 10.6 04:37:20 10° NNW 04:38:34 14° NW 04:38:34 14° NW visible
